Location: Durham
(54.7770°N, 1.5720°W)
Time: 06:40:27
(UTC+00:00)

ISS - Visible Passes

Search period start: 08 December 2023 00:00
Search period end: 18 December 2023 00:00
Orbit: 415 x 417 km, 51.6° (Epoch: 08 December)

Date Brightness Start Highest point End Pass type
(mag) Time Alt. Az. Time Alt. Az. Time Alt. Az.
08 Dec -0.1 16:26:41 10° WSW 16:27:48 11° SW 16:28:57 10° SSW visible
15 Dec -0.4 07:33:34 10° S 07:35:15 13° SE 07:36:57 10° ESE visible
17 Dec -1.1 07:31:14 10° SSW 07:33:56 23° SSE 07:36:37 10° E visible
